When you browse on this site, cookies collect data to enhance your experience and personalize the content and advertising you see.
Visit our Privacy Policy to learn more. By continuing to use the site, you agree to this use of cookies and data.
  • In Switzerland
  • List of Countries
  • For 7 days
  • Water Temperature
  • Weather Map
  • Weather Widgets
  • user-avatar
    Login

    Hourly Weather Armawir

    Today, 23 February, Sunday

    Time Temperature Precipitation Wind Pressure Humidity
    00:00 +5°C° 0 mm 1 mps 688 mmHg 84%
    01:00 +5°C° 0.1 mm 1 mps 688 mmHg 86%
    02:00 +3°C° 0.1 mm 0 mps 689 mmHg 87%
    03:00 +3°C° 0 mm 0 mps 688 mmHg 90%
    04:00 +3°C° 0.3 mm 0 mps 688 mmHg 92%
    05:00 +3°C° 0.3 mm 0 mps 689 mmHg 93%
    06:00 +4°C° 0.3 mm 1 mps 689 mmHg 95%
    07:00 +3°C° 0 mm 0 mps 689 mmHg 93%
    08:00 +4°C° 0 mm 0 mps 689 mmHg 91%
    09:00 +5°C° 0 mm 0 mps 690 mmHg 89%
    10:00 +5°C° 0 mm 0 mps 689 mmHg 84%
    11:00 +7°C° 0 mm 1 mps 689 mmHg 78%
    12:00 +8°C° 0 mm 1 mps 689 mmHg 73%
    13:00 +8°C° 0 mm 1 mps 689 mmHg 71%
    14:00 +9°C° 0 mm 1 mps 688 mmHg 69%
    15:00 +9°C° 0 mm 1 mps 688 mmHg 66%
    16:00 +8°C° 0 mm 1 mps 688 mmHg 69%
    17:00 +8°C° 0 mm 1 mps 689 mmHg 73%
    18:00 +7°C° 0 mm 1 mps 689 mmHg 76%
    19:00 +6°C° 0 mm 1 mps 689 mmHg 76%
    20:00 +6°C° 0 mm 1 mps 689 mmHg 77%
    21:00 +4°C° 0 mm 0 mps 690 mmHg 77%
    22:00 +5°C° 0 mm 1 mps 690 mmHg 76%
    23:00 +5°C° 0 mm 1 mps 690 mmHg 75%

    Tomorrow, 24 February, Monday

    Time Temperature Precipitation Wind Pressure Humidity
    00:00 +5°C° 0 mm 1 mps 690 mmHg 73%
    01:00 +5°C° 0 mm 1 mps 690 mmHg 73%
    02:00 +4°C° 0 mm 1 mps 689 mmHg 73%
    03:00 +4°C° 0 mm 1 mps 689 mmHg 73%
    04:00 +4°C° 0 mm 1 mps 689 mmHg 73%
    05:00 +4°C° 0 mm 1 mps 689 mmHg 73%
    06:00 +3°C° 0 mm 0 mps 689 mmHg 73%
    07:00 +3°C° 0 mm 0 mps 689 mmHg 69%
    08:00 +4°C° 0 mm 0 mps 689 mmHg 65%
    09:00 +5°C° 0 mm 0 mps 689 mmHg 61%
    10:00 +7°C° 0 mm 1 mps 689 mmHg 58%
    11:00 +8°C° 0 mm 1 mps 688 mmHg 55%
    12:00 +8°C° 0 mm 2 mps 687 mmHg 51%
    13:00 +9°C° 0 mm 2 mps 687 mmHg 49%
    14:00 +9°C° 0 mm 2 mps 686 mmHg 47%
    15:00 +10°C° 0 mm 2 mps 686 mmHg 44%
    16:00 +9°C° 0 mm 2 mps 686 mmHg 48%
    17:00 +8°C° 0 mm 2 mps 685 mmHg 52%
    18:00 +7°C° 0 mm 2 mps 685 mmHg 56%
    19:00 +7°C° 0 mm 2 mps 685 mmHg 59%
    20:00 +6°C° 0 mm 2 mps 685 mmHg 62%
    21:00 +5°C° 0 mm 2 mps 685 mmHg 64%
    22:00 +6°C° 0 mm 1 mps 684 mmHg 66%
    23:00 +6°C° 0 mm 1 mps 684 mmHg 67%

    Day after tomorrow, 25 February, Tuesday

    Time Temperature Precipitation Wind Pressure Humidity
    00:00 +5°C° 0 mm 1 mps 683 mmHg 69%
    01:00 +5°C° 0 mm 1 mps 683 mmHg 69%
    02:00 +5°C° 0 mm 1 mps 682 mmHg 69%
    03:00 +5°C° 0 mm 1 mps 682 mmHg 69%
    04:00 +5°C° 0.1 mm 1 mps 682 mmHg 71%
    05:00 +4°C° 0.1 mm 2 mps 681 mmHg 72%
    06:00 +4°C° 0.1 mm 2 mps 681 mmHg 74%
    07:00 +3°C° 0.2 mm 3 mps 681 mmHg 74%
    08:00 +4°C° 0.2 mm 3 mps 682 mmHg 75%
    09:00 +4°C° 0.2 mm 4 mps 682 mmHg 75%
    10:00 +3°C° 0.6 mm 5 mps 682 mmHg 68%
    11:00 +3°C° 0.6 mm 5 mps 682 mmHg 60%
    12:00 +3°C° 0.6 mm 6 mps 683 mmHg 53%
    13:00 +4°C° 0.1 mm 6 mps 684 mmHg 48%
    14:00 +4°C° 0.1 mm 6 mps 684 mmHg 42%
    15:00 +4°C° 0.1 mm 6 mps 685 mmHg 37%
    16:00 +3°C° 0 mm 5 mps 686 mmHg 38%
    17:00 +3°C° 0 mm 4 mps 687 mmHg 40%
    18:00 +2°C° 0 mm 3 mps 688 mmHg 41%
    19:00 +1°C° 0 mm 3 mps 688 mmHg 42%
    20:00 0°C° 0 mm 3 mps 689 mmHg 42%
    21:00 -1°C° 0 mm 3 mps 690 mmHg 43%
    22:00 -1°C° 0 mm 2 mps 690 mmHg 43%
    23:00 -1°C° 0 mm 2 mps 690 mmHg 44%

    26 February, Wednesday

    Time Temperature Precipitation Wind Pressure Humidity
    00:00 -2°C° 0 mm 2 mps 690 mmHg 45%
    01:00 -2°C° 0 mm 2 mps 690 mmHg 45%
    02:00 -2°C° 0 mm 2 mps 689 mmHg 45%
    03:00 -3°C° 0 mm 2 mps 689 mmHg 46%
    04:00 -3°C° 0 mm 2 mps 689 mmHg 46%
    05:00 -3°C° 0 mm 2 mps 689 mmHg 46%
    06:00 -3°C° 0 mm 2 mps 689 mmHg 46%
    07:00 -2°C° 0 mm 2 mps 689 mmHg 43%
    08:00 -1°C° 0 mm 2 mps 690 mmHg 40%
    09:00 +1°C° 0 mm 2 mps 690 mmHg 37%
    10:00 +2°C° 0 mm 2 mps 690 mmHg 36%
    11:00 +4°C° 0 mm 1 mps 690 mmHg 34%
    12:00 +5°C° 0 mm 1 mps 690 mmHg 33%
    13:00 +5°C° 0 mm 1 mps 690 mmHg 32%
    14:00 +6°C° 0 mm 1 mps 689 mmHg 30%
    15:00 +7°C° 0 mm 1 mps 689 mmHg 29%
    16:00 +6°C° 0 mm 1 mps 689 mmHg 34%
    17:00 +5°C° 0 mm 1 mps 689 mmHg 39%
    18:00 +4°C° 0 mm 1 mps 690 mmHg 44%
    19:00 +4°C° 0 mm 1 mps 690 mmHg 43%
    20:00 +3°C° 0 mm 1 mps 690 mmHg 43%
    21:00 +2°C° 0 mm 2 mps 690 mmHg 43%
    22:00 +1°C° 0 mm 2 mps 690 mmHg 43%
    23:00 +1°C° 0 mm 2 mps 690 mmHg 43%

    27 February, Thursday

    Time Temperature Precipitation Wind Pressure Humidity
    00:00 +1°C° 0 mm 2 mps 690 mmHg 43%
    01:00 -1°C° 0 mm 2 mps 690 mmHg 43%
    02:00 -1°C° 0 mm 2 mps 689 mmHg 43%
    03:00 +1°C° 0 mm 1 mps 689 mmHg 43%
    04:00 +1°C° 0 mm 1 mps 689 mmHg 43%
    05:00 +1°C° 0 mm 1 mps 689 mmHg 43%
    06:00 0°C° 0 mm 1 mps 689 mmHg 43%
    07:00 +2°C° 0 mm 1 mps 689 mmHg 40%
    08:00 +3°C° 0 mm 1 mps 690 mmHg 37%
    09:00 +4°C° 0 mm 1 mps 690 mmHg 34%
    10:00 +5°C° 0 mm 1 mps 690 mmHg 33%
    11:00 +6°C° 0 mm 1 mps 689 mmHg 32%
    12:00 +7°C° 0 mm 1 mps 689 mmHg 31%
    13:00 +8°C° 0 mm 1 mps 689 mmHg 31%
    14:00 +9°C° 0 mm 1 mps 688 mmHg 30%
    15:00 +9°C° 0 mm 1 mps 688 mmHg 29%
    16:00 +8°C° 0 mm 1 mps 688 mmHg 32%
    17:00 +7°C° 0 mm 1 mps 688 mmHg 35%
    18:00 +6°C° 0 mm 1 mps 688 mmHg 38%
    19:00 +6°C° 0 mm 1 mps 688 mmHg 40%
    20:00 +5°C° 0 mm 1 mps 688 mmHg 41%
    21:00 +4°C° 0 mm 0 mps 688 mmHg 42%
    22:00 +3°C° 0 mm 0 mps 688 mmHg 43%
    23:00 +4°C° 0 mm 1 mps 688 mmHg 43%

    28 February, Friday

    Time Temperature Precipitation Wind Pressure Humidity
    00:00 +3°C° 0 mm 1 mps 687 mmHg 43%
    01:00 +3°C° 0 mm 1 mps 687 mmHg 43%
    02:00 +3°C° 0 mm 1 mps 686 mmHg 43%
    03:00 +3°C° 0 mm 1 mps 686 mmHg 43%
    04:00 +2°C° 0 mm 1 mps 686 mmHg 43%
    05:00 +2°C° 0 mm 1 mps 685 mmHg 43%
    06:00 +2°C° 0 mm 1 mps 685 mmHg 43%
    07:00 +3°C° 0 mm 1 mps 685 mmHg 39%
    08:00 +5°C° 0 mm 1 mps 685 mmHg 36%
    09:00 +6°C° 0 mm 1 mps 685 mmHg 33%
    10:00 +7°C° 0 mm 1 mps 684 mmHg 32%
    11:00 +8°C° 0 mm 1 mps 684 mmHg 31%
    12:00 +9°C° 0 mm 1 mps 684 mmHg 30%
    13:00 +9°C° 0 mm 1 mps 683 mmHg 29%
    14:00 +10°C° 0 mm 1 mps 683 mmHg 29%
    15:00 +10°C° 0 mm 1 mps 683 mmHg 28%
    16:00 +10°C° 0 mm 1 mps 683 mmHg 31%
    17:00 +9°C° 0 mm 1 mps 683 mmHg 34%
    18:00 +8°C° 0 mm 1 mps 683 mmHg 38%
    19:00 +7°C° 0 mm 1 mps 683 mmHg 39%
    20:00 +6°C° 0 mm 0 mps 683 mmHg 40%
    21:00 +5°C° 0 mm 0 mps 683 mmHg 42%
    22:00 +5°C° 0 mm 0 mps 682 mmHg 43%
    23:00 +4°C° 0 mm 0 mps 682 mmHg 44%
    Show more